QPF
0.00 0.00 0.00 0.00 0.00 0.00 0.00 0.00 0.00 0.00 0.00 0.00 0.00 0.00 0.00 0.00 0.00 0.00 0.00 0.00 0.00 0.00 0.00 0.01 0.01 0.01 0.02 0.01 0.01 0.01 0.00 0.00 0.00 0.01 0.01 0.01 0.01 0.01 0.01 0.01 0.01 0.01 0.01 0.01 0.01 0.01 0.01 0.01 0.00
0.00 0.00 0.00 0.00 0.00 0.00 0.00 0.00 0.00 0.00 0.00 0.00 0.00 0.00 0.00 0.00 0.00 0.00 0.00 0.00 0.00 0.00 0.00 0.00 0.01 0.01 0.01 0.01 0.01 0.01 0.00 0.00 0.01 0.01 0.01 0.01 0.01 0.01 0.01 0.01 0.01 0.01 0.01 0.01 0.01 0.00 0.00 0.00 0.00
0.00 0.00 0.00 0.00 0.00 0.00 0.00 0.00 0.00 0.00 0.00 0.00 0.00 0.00 0.00 0.00 0.00 0.00 0.00 0.00 0.00 0.00 0.00 0.00 0.01 0.01 0.01 0.01 0.01 0.01 0.00 0.00 0.01 0.01 0.01 0.01 0.01 0.01 0.01 0.00 0.00 0.00 0.01 0.00 0.00 0.00 0.00 0.00 0.00
0.00 0.01 0.00 0.00 0.00 0.00 0.00 0.00 0.00 0.00 0.00 0.00 0.00 0.00 0.00 0.00 0.00 0.00 0.00 0.00 0.00 0.00 0.00 0.01 0.01 0.01 0.01 0.01 0.01 0.01 0.01 0.01 0.00 0.00 0.01 0.01 0.01 0.01 0.00 0.00 0.00 0.00 0.00 0.00 0.00 0.00 0.00 0.00 0.00
0.01 0.01 0.01 0.00 0.00 0.00 0.00 0.00 0.00 0.00 0.00 0.00 0.00 0.00 0.00 0.00 0.00 0.00 0.00 0.00 0.00 0.00 0.00 0.01 0.01 0.01 0.01 0.01 0.01 0.01 0.01 0.01 0.00 0.00 0.00 0.01 0.01 0.00 0.00 0.00 0.00 0.00 0.00 0.00 0.00 0.00 0.00 0.00 0.00
0.01 0.01 0.01 0.00 0.00 0.00 0.00 0.00 0.00 0.00 0.00 0.00 0.00 0.00 0.00 0.00 0.00 0.00 0.00 0.00 0.00 0.00 0.00 0.01 0.01 0.01 0.01 0.01 0.01 0.01 0.01 0.01 0.00 0.01 0.01 0.01 0.00 0.00 0.00 0.00 0.00 0.00 0.00 0.00 0.00 0.00 0.00 0.00 0.00
0.01 0.01 0.00 0.00 0.00 0.00 0.00 0.00 0.00 0.00 0.00 0.00 0.00 0.00 0.00 0.00 0.00 0.00 0.00 0.00 0.00 0.00 0.00 0.01 0.01 0.01 0.01 0.01 0.01 0.01 0.01 0.01 0.01 0.01 0.01 0.00 0.00 0.00 0.00 0.00 0.00 0.00 0.00 0.00 0.00 0.00 0.00 0.00 0.00
0.01 0.02 0.01 0.00 0.00 0.00 0.00 0.00 0.00 0.00 0.00 0.00 0.00 0.00 0.00 0.00 0.00 0.00 0.00 0.00 0.00 0.00 0.00 0.00 0.00 0.00 0.00 0.01 0.01 0.00 0.00 0.00 0.01 0.01 0.00 0.00 0.00 0.00 0.00 0.00 0.00 0.00 0.00 0.00 0.00 0.00 0.00 0.00 0.00
0.04 0.03 0.01 0.00 0.00 0.00 0.00 0.00 0.00 0.00 0.00 0.00 0.00 0.00 0.00 0.00 0.00 0.00 0.00 0.00 0.00 0.00 0.00 0.00 0.00 0.00 0.00 0.00 0.01 0.00 0.00 0.01 0.01 0.00 0.00 0.00 0.00 0.00 0.00 0.00 0.00 0.00 0.00 0.00 0.00 0.00 0.00 0.00 0.00
0.05 0.04 0.01 0.00 0.00 0.00 0.00 0.00 0.00 0.00 0.00 0.00 0.00 0.00 0.00 0.00 0.00 0.00 0.00 0.00 0.00 0.00 0.00 0.00 0.00 0.00 0.00 0.00 0.00 0.00 0.00 0.00 0.00 0.00 0.00 0.00 0.00 0.00 0.00 0.00 0.00 0.00 0.00 0.00 0.00 0.00 0.00 0.00 0.00
0.04 0.02 0.01 0.00 0.00 0.00 0.00 0.00 0.00 0.00 0.00 0.00 0.00 0.00 0.00 0.00 0.00 0.00 0.00 0.00 0.00 0.00 0.00 0.00 0.00 0.00 0.00 0.00 0.00 0.00 0.00 0.00 0.00 0.00 0.00 0.00 0.00 0.00 0.00 0.00 0.00 0.00 0.00 0.00 0.00 0.00 0.00 0.00 0.00
0.03 0.01 0.01 0.00 0.00 0.00 0.00 0.00 0.00 0.00 0.00 0.00 0.00 0.00 0.00 0.00 0.00 0.00 0.00 0.00 0.00 0.00 0.00 0.00 0.00 0.00 0.00 0.00 0.00 0.00 0.00 0.00 0.00 0.00 0.00 0.00 0.00 0.00 0.00 0.00 0.00 0.00 0.00 0.00 0.00 0.00 0.00 0.00 0.00
0.04 0.02 0.01 0.00 0.00 0.00 0.00 0.00 0.00 0.00 0.00 0.00 0.00 0.00 0.00 0.00 0.00 0.00 0.00 0.00 0.00 0.00 0.00 0.00 0.00 0.00 0.00 0.00 0.00 0.00 0.00 0.00 0.00 0.00 0.00 0.00 0.00 0.00 0.00 0.00 0.00 0.00 0.00 0.00 0.00 0.00 0.00 0.00 0.00
0.06 0.04 0.01 0.01 0.00 0.00 0.01 0.00 0.00 0.00 0.00 0.00 0.00 0.00 0.00 0.00 0.00 0.00 0.00 0.01 0.00 0.00 0.00 0.00 0.00 0.00 0.00 0.00 0.00 0.00 0.00 0.00 0.00 0.00 0.00 0.00 0.00 0.00 0.00 0.00 0.00 0.00 0.00 0.00 0.00 0.00 0.00 0.00 0.00
0.05 0.07 0.04 0.01 0.00 0.00 0.01 0.01 0.01 0.00 0.00 0.00 0.00 0.00 0.00 0.00 0.00 0.00 0.00 0.00 0.01 0.00 0.00 0.00 0.00 0.00 0.01 0.00 0.00 0.00 0.00 0.00 0.00 0.00 0.00 0.00 0.00 0.00 0.00 0.00 0.00 0.00 0.00 0.00 0.00 0.00 0.00 0.00 0.00
0.06 0.08 0.08 0.03 0.01 0.01 0.02 0.01 0.00 0.00 0.00 0.00 0.00 0.00 0.00 0.00 0.00 0.00 0.00 0.01 0.01 0.01 0.01 0.00 0.00 0.00 0.01 0.01 0.00 0.00 0.00 0.00 0.00 0.00 0.00 0.00 0.00 0.00 0.00 0.00 0.00 0.00 0.00 0.00 0.00 0.00 0.00 0.00 0.00
0.08 0.08 0.06 0.03 0.01 0.01 0.02 0.01 0.00 0.00 0.00 0.00 0.00 0.00 0.00 0.00 0.00 0.00 0.00 0.00 0.01 0.01 0.01 0.01 0.00 0.00 0.01 0.01 0.00 0.00 0.00 0.00 0.00 0.00 0.00 0.00 0.00 0.00 0.00 0.00 0.00 0.00 0.00 0.00 0.00 0.00 0.00 0.00 0.00
0.07 0.04 0.03 0.02 0.02 0.02 0.02 0.01 0.00 0.00 0.00 0.00 0.00 0.00 0.00 0.00 0.00 0.00 0.00 0.00 0.00 0.00 0.01 0.01 0.01 0.00 0.00 0.01 0.00 0.00 0.00 0.00 0.00 0.00 0.00 0.00 0.00 0.00 0.00 0.00 0.00 0.00 0.00 0.00 0.00 0.00 0.00 0.00 0.00
0.04 0.03 0.02 0.01 0.01 0.03 0.03 0.01 0.00 0.00 0.00 0.00 0.00 0.00 0.00 0.00 0.00 0.00 0.00 0.00 0.00 0.00 0.01 0.01 0.01 0.01 0.01 0.00 0.01 0.00 0.00 0.00 0.00 0.00 0.00 0.00 0.00 0.00 0.00 0.00 0.00 0.00 0.00 0.00 0.00 0.00 0.00 0.00 0.00
0.06 0.05 0.03 0.02 0.02 0.03 0.03 0.02 0.00 0.00 0.00 0.00 0.00 0.00 0.00 0.00 0.00 0.00 0.00 0.00 0.00 0.00 0.00 0.00 0.01 0.01 0.01 0.00 0.00 0.00 0.00 0.00 0.00 0.00 0.00 0.00 0.00 0.00 0.00 0.00 0.00 0.00 0.00 0.00 0.00 0.00 0.00 0.00 0.00
0.07 0.06 0.03 0.02 0.02 0.03 0.04 0.03 0.01 0.00 0.00 0.00 0.00 0.00 0.00 0.00 0.00 0.00 0.00 0.00 0.00 0.00 0.00 0.00 0.00 0.00 0.00 0.00 0.00 0.00 0.00 0.00 0.00 0.00 0.00 0.00 0.00 0.00 0.00 0.00 0.00 0.00 0.00 0.00 0.00 0.00 0.00 0.00 0.00
0.06 0.05 0.04 0.03 0.04 0.04 0.04 0.04 0.01 0.00 0.00 0.00 0.00 0.00 0.00 0.00 0.00 0.00 0.00 0.00 0.00 0.00 0.00 0.00 0.00 0.00 0.00 0.00 0.00 0.00 0.00 0.00 0.00 0.00 0.00 0.00 0.00 0.00 0.00 0.00 0.00 0.00 0.00 0.00 0.00 0.00 0.00 0.00 0.00
0.05 0.05 0.05 0.05 0.05 0.06 0.04 0.05 0.01 0.00 0.00 0.00 0.00 0.00 0.00 0.00 0.00 0.00 0.00 0.00 0.00 0.00 0.00 0.00 0.00 0.00 0.00 0.00 0.00 0.00 0.00 0.00 0.00 0.00 0.00 0.00 0.00 0.00 0.00 0.00 0.00 0.00 0.00 0.00 0.00 0.00 0.00 0.00 0.00
0.05 0.07 0.09 0.10 0.11 0.13 0.05 0.05 0.02 0.00 0.00 0.00 0.00 0.00 0.00 0.00 0.00 0.00 0.00 0.00 0.00 0.00 0.00 0.00 0.00 0.00 0.00 0.00 0.00 0.00 0.00 0.00 0.00 0.00 0.00 0.00 0.00 0.00 0.00 0.00 0.00 0.00 0.00 0.00 0.00 0.00 0.00 0.00 0.00
0.08 0.15 0.22 0.24 0.23 0.14 0.02 0.03 0.02 0.00 0.00 0.00 0.00 0.00 0.00 0.00 0.00 0.00 0.00 0.00 0.00 0.00 0.00 0.00 0.00 0.00 0.00 0.00 0.00 0.00 0.00 0.00 0.00 0.00 0.00 0.00 0.00 0.00 0.00 0.00 0.00 0.00 0.00 0.00 0.00 0.00 0.00 0.00 0.01
0.07 0.14 0.20 0.20 0.14 0.06 0.01 0.01 0.00 0.00 0.00 0.00 0.00 0.00 0.00 0.00 0.00 0.00 0.00 0.00 0.00 0.00 0.00 0.00 0.00 0.00 0.00 0.00 0.00 0.00 0.00 0.00 0.00 0.00 0.00 0.00 0.00 0.00 0.00 0.00 0.00 0.00 0.00 0.00 0.00 0.00 0.00 0.01 0.01
0.07 0.09 0.09 0.12 0.10 0.06 0.03 0.01 0.00 0.00 0.00 0.00 0.00 0.00 0.00 0.00 0.00 0.00 0.00 0.00 0.00 0.00 0.00 0.00 0.00 0.00 0.00 0.00 0.00 0.00 0.00 0.00 0.00 0.00 0.00 0.00 0.00 0.00 0.00 0.00 0.00 0.00 0.00 0.00 0.00 0.00 0.00 0.01 0.01
0.08 0.10 0.11 0.16 0.14 0.09 0.04 0.01 0.01 0.00 0.00 0.00 0.00 0.00 0.00 0.00 0.00 0.00 0.00 0.00 0.00 0.00 0.00 0.00 0.00 0.00 0.00 0.00 0.00 0.00 0.00 0.00 0.00 0.00 0.00 0.00 0.00 0.00 0.00 0.00 0.00 0.00 0.00 0.00 0.00 0.01 0.01 0.01 0.01
0.09 0.11 0.15 0.18 0.13 0.10 0.06 0.02 0.01 0.00 0.00 0.00 0.01 0.01 0.00 0.00 0.00 0.00 0.00 0.00 0.00 0.00 0.00 0.00 0.00 0.00 0.00 0.00 0.00 0.00 0.00 0.00 0.00 0.00 0.00 0.00 0.00 0.00 0.00 0.00 0.00 0.00 0.00 0.00 0.00 0.00 0.00 0.01 0.01
0.09 0.11 0.13 0.17 0.14 0.08 0.06 0.03 0.02 0.01 0.00 0.00 0.01 0.01 0.01 0.00 0.00 0.00 0.00 0.00 0.00 0.00 0.00 0.00 0.00 0.00 0.00 0.00 0.00 0.00 0.00 0.00 0.00 0.00 0.00 0.00 0.00 0.00 0.00 0.00 0.00 0.00 0.00 0.00 0.00 0.00 0.00 0.00 0.00
MSLP
1012.12 1012.76 1013.56 1014.36 1014.98 1015.29 1015.18 1014.65 1013.76 1012.64 1011.47 1010.41 1009.60 1009.12 1008.94 1009.01 1009.23 1009.49 1009.69 1009.82 1009.87 1009.89 1009.96 1010.15 1010.50 1011.00 1011.61 1012.27 1012.89 1013.42 1013.84 1014.13 1014.34 1014.51 1014.70 1014.94 1015.23 1015.55 1015.89 1016.20 1016.44 1016.61 1016.72 1016.78 1016.82 1016.86 1016.92 1017.00 1017.09
1012.42 1013.11 1013.88 1014.58 1015.04 1015.13 1014.80 1014.05 1012.97 1011.71 1010.45 1009.36 1008.56 1008.10 1007.97 1008.09 1008.36 1008.67 1008.93 1009.12 1009.25 1009.37 1009.55 1009.84 1010.28 1010.87 1011.56 1012.27 1012.94 1013.52 1013.96 1014.29 1014.53 1014.74 1014.95 1015.20 1015.49 1015.82 1016.15 1016.45 1016.68 1016.85 1016.95 1017.01 1017.05 1017.10 1017.17 1017.26 1017.37
1012.68 1013.35 1014.04 1014.59 1014.85 1014.74 1014.20 1013.29 1012.09 1010.78 1009.53 1008.48 1007.75 1007.37 1007.30 1007.48 1007.80 1008.15 1008.45 1008.69 1008.88 1009.07 1009.31 1009.68 1010.19 1010.83 1011.55 1012.29 1012.98 1013.57 1014.04 1014.39 1014.66 1014.89 1015.12 1015.39 1015.68 1016.00 1016.32 1016.60 1016.82 1016.98 1017.08 1017.15 1017.22 1017.29 1017.39 1017.51 1017.65
1012.82 1013.42 1013.98 1014.35 1014.42 1014.12 1013.43 1012.42 1011.20 1009.93 1008.76 1007.83 1007.22 1006.95 1006.98 1007.22 1007.58 1007.96 1008.30 1008.57 1008.80 1009.03 1009.32 1009.72 1010.25 1010.90 1011.61 1012.33 1013.00 1013.58 1014.05 1014.41 1014.70 1014.95 1015.21 1015.49 1015.79 1016.11 1016.41 1016.68 1016.89 1017.04 1017.16 1017.25 1017.34 1017.45 1017.59 1017.75 1017.93
1012.80 1013.28 1013.68 1013.86 1013.75 1013.30 1012.52 1011.50 1010.33 1009.18 1008.16 1007.40 1006.95 1006.81 1006.94 1007.25 1007.65 1008.06 1008.41 1008.71 1008.97 1009.23 1009.55 1009.96 1010.48 1011.09 1011.75 1012.41 1013.03 1013.56 1014.00 1014.36 1014.66 1014.94 1015.22 1015.53 1015.85 1016.17 1016.47 1016.73 1016.94 1017.10 1017.23 1017.35 1017.47 1017.62 1017.80 1018.00 1018.21
1012.61 1012.94 1013.15 1013.15 1012.88 1012.33 1011.53 1010.56 1009.51 1008.53 1007.71 1007.15 1006.87 1006.86 1007.08 1007.45 1007.88 1008.30 1008.68 1009.00 1009.29 1009.59 1009.92 1010.33 1010.82 1011.37 1011.95 1012.53 1013.06 1013.53 1013.93 1014.28 1014.59 1014.90 1015.22 1015.56 1015.91 1016.24 1016.55 1016.82 1017.03 1017.20 1017.34 1017.48 1017.63 1017.81 1018.02 1018.24 1018.48
1012.26 1012.42 1012.44 1012.28 1011.89 1011.29 1010.51 1009.64 1008.75 1007.97 1007.36 1006.98 1006.86 1006.96 1007.24 1007.64 1008.09 1008.52 1008.93 1009.29 1009.63 1009.96 1010.33 1010.74 1011.20 1011.69 1012.19 1012.68 1013.12 1013.52 1013.88 1014.22 1014.55 1014.89 1015.26 1015.64 1016.02 1016.39 1016.71 1016.98 1017.20 1017.37 1017.52 1017.66 1017.83 1018.02 1018.23 1018.47 1018.70
1011.81 1011.79 1011.64 1011.33 1010.86 1010.24 1009.52 1008.77 1008.06 1007.47 1007.04 1006.82 1006.81 1006.98 1007.29 1007.69 1008.13 1008.58 1009.01 1009.42 1009.82 1010.22 1010.64 1011.07 1011.53 1011.98 1012.42 1012.83 1013.20 1013.55 1013.88 1014.22 1014.57 1014.96 1015.37 1015.80 1016.22 1016.61 1016.95 1017.22 1017.43 1017.60 1017.74 1017.88 1018.04 1018.23 1018.44 1018.66 1018.88
1011.33 1011.15 1010.85 1010.42 1009.89 1009.28 1008.63 1008.00 1007.45 1007.01 1006.73 1006.62 1006.66 1006.84 1007.14 1007.51 1007.93 1008.38 1008.84 1009.30 1009.78 1010.27 1010.76 1011.25 1011.73 1012.18 1012.59 1012.95 1013.29 1013.61 1013.93 1014.28 1014.67 1015.10 1015.56 1016.03 1016.48 1016.89 1017.23 1017.50 1017.70 1017.85 1017.98 1018.10 1018.25 1018.41 1018.60 1018.81 1019.00
1010.91 1010.58 1010.15 1009.63 1009.06 1008.46 1007.88 1007.36 1006.93 1006.61 1006.42 1006.35 1006.40 1006.55 1006.79 1007.11 1007.49 1007.92 1008.40 1008.92 1009.49 1010.07 1010.65 1011.22 1011.76 1012.23 1012.65 1013.02 1013.35 1013.67 1014.00 1014.38 1014.80 1015.27 1015.77 1016.28 1016.75 1017.16 1017.50 1017.75 1017.93 1018.07 1018.17 1018.28 1018.40 1018.55 1018.73 1018.91 1019.09
1010.61 1010.15 1009.61 1009.03 1008.42 1007.84 1007.31 1006.86 1006.51 1006.26 1006.10 1006.04 1006.05 1006.15 1006.31 1006.55 1006.87 1007.28 1007.78 1008.35 1008.98 1009.66 1010.34 1010.99 1011.60 1012.13 1012.59 1012.98 1013.34 1013.69 1014.06 1014.47 1014.92 1015.43 1015.95 1016.47 1016.94 1017.35 1017.68 1017.91 1018.08 1018.19 1018.28 1018.38 1018.49 1018.64 1018.80 1018.98 1019.15
1010.47 1009.91 1009.28 1008.63 1007.99 1007.41 1006.91 1006.50 1006.19 1005.97 1005.81 1005.72 1005.68 1005.70 1005.78 1005.94 1006.21 1006.59 1007.08 1007.68 1008.37 1009.11 1009.86 1010.60 1011.27 1011.87 1012.39 1012.84 1013.24 1013.64 1014.04 1014.49 1014.98 1015.50 1016.03 1016.54 1017.00 1017.40 1017.70 1017.92 1018.08 1018.19 1018.29 1018.39 1018.51 1018.66 1018.84 1019.03 1019.22
1010.49 1009.84 1009.14 1008.43 1007.75 1007.16 1006.66 1006.26 1005.96 1005.73 1005.55 1005.42 1005.33 1005.28 1005.29 1005.40 1005.61 1005.95 1006.43 1007.03 1007.74 1008.51 1009.31 1010.09 1010.82 1011.48 1012.06 1012.57 1013.04 1013.48 1013.94 1014.41 1014.92 1015.44 1015.96 1016.45 1016.89 1017.26 1017.56 1017.78 1017.94 1018.07 1018.19 1018.32 1018.48 1018.66 1018.87 1019.09 1019.30
1010.65 1009.93 1009.15 1008.38 1007.66 1007.03 1006.51 1006.09 1005.77 1005.52 1005.32 1005.15 1005.02 1004.93 1004.91 1004.97 1005.15 1005.45 1005.90 1006.48 1007.17 1007.94 1008.74 1009.53 1010.30 1011.00 1011.63 1012.20 1012.73 1013.23 1013.72 1014.22 1014.73 1015.24 1015.73 1016.19 1016.61 1016.96 1017.25 1017.48 1017.68 1017.85 1018.01 1018.20 1018.41 1018.65 1018.91 1019.17 1019.42
1010.88 1010.09 1009.26 1008.43 1007.66 1006.99 1006.42 1005.96 1005.59 1005.30 1005.07 1004.88 1004.73 1004.63 1004.60 1004.65 1004.82 1005.10 1005.52 1006.05 1006.69 1007.41 1008.17 1008.96 1009.72 1010.45 1011.13 1011.76 1012.34 1012.89 1013.42 1013.93 1014.43 1014.92 1015.38 1015.81 1016.20 1016.54 1016.84 1017.10 1017.34 1017.58 1017.82 1018.08 1018.35 1018.65 1018.96 1019.27 1019.56
1011.12 1010.28 1009.40 1008.53 1007.71 1006.98 1006.35 1005.81 1005.38 1005.04 1004.76 1004.55 1004.40 1004.32 1004.31 1004.38 1004.55 1004.82 1005.20 1005.68 1006.25 1006.90 1007.61 1008.35 1009.10 1009.84 1010.56 1011.24 1011.89 1012.49 1013.05 1013.58 1014.07 1014.52 1014.95 1015.35 1015.72 1016.06 1016.38 1016.69 1017.00 1017.31 1017.63 1017.96 1018.31 1018.67 1019.02 1019.37 1019.68
1011.30 1010.45 1009.56 1008.66 1007.80 1007.00 1006.29 1005.67 1005.14 1004.71 1004.38 1004.13 1003.98 1003.92 1003.94 1004.05 1004.23 1004.50 1004.85 1005.28 1005.78 1006.35 1006.99 1007.68 1008.42 1009.17 1009.93 1010.68 1011.38 1012.04 1012.64 1013.18 1013.66 1014.10 1014.49 1014.86 1015.22 1015.57 1015.93 1016.29 1016.67 1017.06 1017.46 1017.87 1018.28 1018.68 1019.07 1019.44 1019.77
1011.41 1010.59 1009.72 1008.82 1007.94 1007.08 1006.26 1005.52 1004.87 1004.32 1003.89 1003.59 1003.41 1003.36 1003.41 1003.55 1003.77 1004.04 1004.37 1004.75 1005.19 1005.69 1006.27 1006.92 1007.65 1008.43 1009.24 1010.04 1010.82 1011.54 1012.19 1012.75 1013.24 1013.66 1014.03 1014.39 1014.74 1015.11 1015.50 1015.92 1016.37 1016.83 1017.30 1017.77 1018.23 1018.66 1019.08 1019.45 1019.79
1011.43 1010.69 1009.89 1009.03 1008.14 1007.22 1006.30 1005.41 1004.59 1003.88 1003.31 1002.91 1002.67 1002.60 1002.66 1002.83 1003.08 1003.36 1003.68 1004.04 1004.43 1004.88 1005.42 1006.05 1006.78 1007.59 1008.46 1009.34 1010.19 1010.98 1011.69 1012.28 1012.78 1013.20 1013.57 1013.91 1014.27 1014.66 1015.09 1015.56 1016.07 1016.59 1017.12 1017.63 1018.12 1018.57 1018.99 1019.37 1019.72
1011.37 1010.76 1010.08 1009.30 1008.42 1007.45 1006.41 1005.35 1004.33 1003.41 1002.66 1002.11 1001.78 1001.65 1001.71 1001.89 1002.16 1002.46 1002.79 1003.13 1003.50 1003.92 1004.44 1005.06 1005.81 1006.66 1007.59 1008.55 1009.48 1010.35 1011.11 1011.75 1012.27 1012.70 1013.07 1013.42 1013.79 1014.20 1014.67 1015.18 1015.73 1016.30 1016.86 1017.40 1017.91 1018.37 1018.79 1019.18 1019.52
1011.25 1010.82 1010.30 1009.62 1008.78 1007.75 1006.59 1005.34 1004.09 1002.94 1001.97 1001.24 1000.78 1000.58 1000.59 1000.77 1001.06 1001.39 1001.73 1002.07 1002.44 1002.86 1003.37 1004.00 1004.77 1005.66 1006.65 1007.67 1008.68 1009.61 1010.43 1011.11 1011.66 1012.12 1012.51 1012.88 1013.27 1013.70 1014.20 1014.75 1015.33 1015.93 1016.51 1017.06 1017.58 1018.04 1018.47 1018.86 1019.22
1011.10 1010.88 1010.52 1009.96 1009.15 1008.07 1006.77 1005.33 1003.85 1002.46 1001.26 1000.34 999.73 999.44 999.41 999.58 999.88 1000.24 1000.60 1000.97 1001.34 1001.77 1002.28 1002.92 1003.71 1004.63 1005.66 1006.73 1007.78 1008.76 1009.63 1010.36 1010.95 1011.43 1011.85 1012.25 1012.67 1013.14 1013.66 1014.24 1014.84 1015.45 1016.05 1016.60 1017.12 1017.59 1018.02 1018.43 1018.82
1010.95 1010.91 1010.71 1010.24 1009.45 1008.32 1006.89 1005.26 1003.55 1001.93 1000.52 999.42 998.69 998.31 998.24 998.41 998.73 999.11 999.51 999.90 1000.29 1000.73 1001.24 1001.89 1002.68 1003.61 1004.65 1005.74 1006.82 1007.83 1008.73 1009.49 1010.12 1010.64 1011.10 1011.54 1012.00 1012.51 1013.06 1013.66 1014.28 1014.90 1015.49 1016.04 1016.56 1017.03 1017.48 1017.91 1018.33
1010.81 1010.92 1010.82 1010.40 1009.59 1008.38 1006.82 1005.03 1003.13 1001.33 999.75 998.52 997.69 997.25 997.16 997.34 997.68 998.10 998.52 998.94 999.35 999.78 1000.30 1000.93 1001.71 1002.63 1003.65 1004.74 1005.82 1006.84 1007.76 1008.55 1009.21 1009.78 1010.29 1010.78 1011.28 1011.83 1012.41 1013.04 1013.67 1014.29 1014.88 1015.42 1015.93 1016.41 1016.87 1017.32 1017.78
1010.70 1010.87 1010.80 1010.37 1009.51 1008.20 1006.52 1004.58 1002.55 1000.61 998.94 997.63 996.75 996.30 996.22 996.41 996.77 997.21 997.66 998.09 998.50 998.93 999.44 1000.05 1000.80 1001.69 1002.69 1003.74 1004.81 1005.82 1006.74 1007.55 1008.25 1008.86 1009.43 1009.98 1010.54 1011.13 1011.76 1012.40 1013.04 1013.66 1014.24 1014.78 1015.28 1015.75 1016.22 1016.69 1017.18
1010.62 1010.76 1010.64 1010.12 1009.16 1007.73 1005.93 1003.89 1001.79 999.80 998.09 996.78 995.91 995.47 995.41 995.62 996.00 996.44 996.89 997.31 997.72 998.13 998.61 999.20 999.92 1000.78 1001.74 1002.76 1003.80 1004.80 1005.72 1006.55 1007.28 1007.94 1008.56 1009.18 1009.80 1010.45 1011.11 1011.78 1012.43 1013.05 1013.62 1014.14 1014.63 1015.10 1015.57 1016.05 1016.55
1010.59 1010.61 1010.35 1009.68 1008.56 1007.02 1005.12 1003.03 1000.90 998.93 997.26 996.00 995.18 994.79 994.75 994.96 995.33 995.75 996.16 996.55 996.92 997.31 997.76 998.33 999.02 999.85 1000.79 1001.79 1002.81 1003.80 1004.72 1005.56 1006.33 1007.04 1007.72 1008.40 1009.08 1009.78 1010.48 1011.18 1011.84 1012.46 1013.02 1013.53 1014.00 1014.46 1014.92 1015.39 1015.89
1010.60 1010.43 1009.96 1009.10 1007.81 1006.14 1004.18 1002.08 1000.00 998.11 996.55 995.38 994.64 994.28 994.25 994.43 994.73 995.08 995.41 995.72 996.03 996.38 996.81 997.36 998.05 998.88 999.82 1000.82 1001.83 1002.82 1003.75 1004.61 1005.41 1006.17 1006.90 1007.64 1008.37 1009.12 1009.87 1010.58 1011.26 1011.88 1012.43 1012.93 1013.39 1013.83 1014.28 1014.73 1015.22
1010.64 1010.24 1009.53 1008.45 1007.01 1005.24 1003.27 1001.21 999.24 997.48 996.06 995.01 994.34 994.01 993.94 994.04 994.22 994.42 994.61 994.81 995.02 995.31 995.72 996.27 996.98 997.84 998.80 999.83 1000.86 1001.87 1002.82 1003.71 1004.54 1005.33 1006.10 1006.88 1007.67 1008.45 1009.23 1009.98 1010.67 1011.29 1011.85 1012.34 1012.79 1013.22 1013.65 1014.09 1014.56
1010.69 1010.05 1009.11 1007.84 1006.26 1004.45 1002.51 1000.56 998.75 997.17 995.91 994.99 994.38 994.03 993.87 993.82 993.81 993.81 993.80 993.83 993.92 994.14 994.51 995.07 995.82 996.73 997.75 998.83 999.91 1000.95 1001.93 1002.84 1003.69 1004.51 1005.31 1006.12 1006.94 1007.76 1008.56 1009.33 1010.04 1010.68 1011.24 1011.74 1012.20 1012.62 1013.05 1013.49 1013.94
Thickness
5706 5706 5704 5695 5680 5671 5677 5698 5717 5727 5737 5752 5757 5757 5755 5754 5751 5752 5765 5771 5770 5766 5763 5761 5758 5756 5754 5752 5750 5748 5746 5745 5743 5741 5740 5738 5737 5736 5734 5733 5731 5729 5727 5726 5724 5722 5720 5718 5716
5698 5698 5690 5679 5666 5662 5678 5702 5716 5730 5742 5752 5753 5753 5751 5753 5760 5760 5762 5766 5766 5763 5761 5758 5756 5753 5751 5749 5747 5745 5743 5742 5740 5738 5737 5736 5735 5733 5731 5730 5727 5725 5723 5721 5719 5718 5716 5714 5712
5690 5690 5675 5664 5661 5671 5688 5710 5722 5735 5743 5743 5745 5749 5750 5751 5756 5758 5765 5765 5762 5759 5757 5754 5753 5750 5749 5747 5744 5742 5740 5739 5737 5735 5734 5733 5732 5730 5728 5726 5724 5722 5719 5717 5715 5714 5712 5710 5708
5677 5670 5664 5656 5667 5687 5700 5715 5722 5727 5736 5742 5741 5739 5747 5758 5759 5761 5763 5761 5757 5754 5752 5751 5749 5747 5745 5743 5741 5739 5737 5736 5734 5732 5731 5730 5729 5727 5725 5723 5720 5718 5716 5714 5712 5710 5708 5706 5703
5664 5655 5649 5653 5670 5690 5703 5714 5717 5718 5726 5736 5736 5733 5740 5752 5759 5759 5758 5756 5752 5749 5748 5746 5745 5743 5742 5740 5738 5736 5734 5733 5731 5730 5728 5727 5725 5723 5721 5719 5717 5714 5712 5710 5708 5706 5704 5702 5699
5646 5644 5640 5651 5671 5689 5701 5711 5712 5714 5721 5730 5730 5727 5733 5745 5750 5751 5752 5750 5748 5745 5743 5742 5740 5739 5738 5736 5734 5733 5731 5730 5728 5727 5725 5724 5722 5720 5717 5715 5713 5711 5709 5706 5704 5702 5700 5698 5695
5635 5634 5639 5652 5665 5680 5699 5707 5706 5709 5715 5725 5730 5721 5725 5734 5743 5745 5744 5743 5741 5739 5738 5737 5736 5735 5733 5732 5731 5730 5729 5727 5725 5724 5722 5720 5718 5716 5714 5712 5710 5707 5705 5703 5701 5699 5696 5694 5691
5634 5629 5636 5648 5660 5678 5698 5704 5712 5712 5716 5729 5730 5720 5719 5730 5736 5737 5735 5734 5733 5733 5733 5733 5732 5731 5730 5728 5727 5726 5725 5724 5722 5721 5719 5717 5715 5713 5711 5709 5706 5704 5702 5699 5697 5695 5692 5690 5687
5626 5618 5630 5649 5660 5676 5692 5695 5707 5718 5718 5723 5728 5732 5738 5735 5732 5728 5725 5724 5725 5726 5728 5728 5728 5727 5726 5725 5723 5722 5721 5720 5719 5717 5715 5713 5711 5709 5707 5705 5703 5701 5698 5696 5693 5691 5689 5686 5683
5613 5615 5638 5657 5665 5673 5682 5688 5696 5702 5705 5711 5717 5726 5731 5729 5727 5725 5723 5722 5722 5723 5724 5724 5724 5723 5722 5721 5720 5719 5718 5717 5715 5714 5712 5710 5708 5706 5703 5701 5699 5697 5694 5692 5689 5687 5685 5682 5679
5609 5618 5637 5649 5660 5666 5671 5679 5689 5690 5693 5706 5711 5715 5720 5722 5723 5724 5724 5725 5725 5724 5722 5722 5721 5720 5719 5718 5717 5715 5714 5713 5712 5710 5709 5706 5704 5702 5700 5698 5695 5693 5691 5688 5686 5683 5681 5678 5675
5601 5616 5628 5639 5650 5656 5662 5670 5677 5685 5696 5711 5716 5717 5717 5717 5720 5722 5723 5722 5721 5720 5720 5719 5719 5717 5716 5715 5714 5713 5711 5710 5709 5707 5705 5703 5701 5699 5696 5694 5692 5689 5687 5684 5682 5679 5676 5674 5670
5589 5605 5618 5629 5638 5646 5652 5659 5668 5680 5696 5704 5707 5709 5712 5715 5719 5722 5724 5722 5720 5718 5718 5718 5717 5715 5714 5712 5711 5710 5709 5708 5706 5704 5703 5701 5698 5696 5693 5691 5689 5686 5683 5681 5678 5675 5672 5669 5666
5585 5593 5603 5616 5627 5636 5642 5651 5658 5676 5688 5691 5695 5699 5706 5711 5714 5714 5715 5716 5717 5717 5717 5716 5715 5714 5712 5710 5709 5708 5707 5705 5704 5702 5701 5699 5697 5694 5691 5688 5685 5683 5681 5678 5675 5672 5669 5666 5662
5572 5577 5588 5604 5616 5627 5631 5636 5653 5673 5676 5679 5685 5692 5698 5704 5708 5713 5717 5719 5720 5719 5718 5716 5714 5712 5710 5709 5707 5706 5705 5703 5702 5700 5699 5697 5695 5692 5689 5686 5683 5681 5678 5675 5671 5668 5665 5661 5658
5558 5561 5570 5597 5609 5619 5615 5625 5655 5666 5666 5670 5677 5683 5690 5697 5704 5711 5715 5718 5719 5718 5716 5715 5713 5711 5709 5708 5706 5705 5703 5702 5700 5699 5697 5695 5693 5690 5687 5684 5681 5678 5675 5671 5668 5664 5660 5657 5653
5542 5547 5562 5584 5601 5609 5609 5622 5647 5656 5659 5663 5671 5677 5684 5691 5698 5704 5710 5714 5716 5716 5715 5713 5713 5711 5709 5707 5705 5703 5702 5700 5699 5697 5696 5694 5692 5689 5686 5682 5679 5676 5672 5668 5665 5660 5657 5652 5648
5534 5543 5557 5570 5591 5597 5601 5616 5635 5646 5652 5658 5665 5672 5679 5687 5697 5704 5708 5711 5713 5714 5714 5712 5712 5710 5707 5704 5701 5699 5698 5698 5697 5696 5695 5693 5690 5687 5684 5680 5677 5673 5669 5665 5661 5657 5653 5649 5645
5530 5537 5545 5563 5581 5584 5592 5604 5621 5636 5641 5649 5658 5667 5675 5686 5698 5703 5706 5709 5709 5710 5710 5710 5709 5708 5705 5703 5701 5699 5698 5697 5696 5695 5694 5692 5689 5686 5682 5679 5675 5671 5667 5663 5659 5654 5649 5644 5639
5517 5523 5533 5550 5567 5574 5580 5593 5611 5625 5636 5646 5655 5664 5673 5681 5689 5696 5702 5705 5707 5709 5710 5710 5710 5709 5708 5707 5705 5703 5699 5696 5694 5693 5691 5690 5688 5684 5681 5677 5673 5669 5665 5660 5655 5651 5645 5640 5635
5510 5517 5528 5537 5553 5562 5565 5577 5597 5618 5631 5643 5654 5664 5673 5681 5688 5694 5699 5703 5706 5708 5711 5712 5711 5710 5709 5707 5701 5696 5692 5689 5688 5689 5689 5688 5686 5683 5680 5676 5672 5667 5663 5658 5653 5649 5643 5636 5631
5505 5523 5528 5533 5534 5539 5552 5555 5586 5607 5620 5636 5649 5658 5669 5679 5688 5694 5699 5702 5706 5710 5713 5713 5712 5710 5708 5705 5701 5697 5696 5694 5695 5693 5690 5687 5685 5682 5678 5674 5670 5666 5661 5656 5652 5647 5642 5635 5628
5506 5520 5521 5525 5524 5526 5539 5541 5573 5597 5611 5632 5648 5658 5669 5678 5686 5693 5699 5704 5708 5710 5711 5712 5710 5708 5707 5704 5703 5699 5698 5696 5692 5689 5686 5684 5682 5679 5676 5672 5668 5664 5659 5655 5650 5644 5639 5634 5628
5502 5506 5511 5513 5511 5513 5536 5535 5558 5590 5613 5632 5646 5657 5667 5676 5683 5691 5698 5702 5705 5708 5708 5709 5707 5707 5706 5703 5702 5700 5698 5694 5689 5686 5684 5681 5679 5677 5674 5670 5666 5662 5658 5653 5648 5643 5637 5632 5626
5490 5487 5488 5490 5495 5510 5540 5539 5562 5598 5618 5632 5644 5654 5664 5672 5679 5686 5691 5695 5700 5703 5705 5706 5706 5705 5704 5702 5701 5700 5698 5694 5691 5688 5684 5681 5677 5675 5673 5669 5665 5660 5656 5651 5645 5640 5635 5629 5624
5485 5485 5484 5486 5495 5514 5535 5543 5571 5599 5614 5626 5636 5647 5658 5666 5674 5682 5689 5694 5698 5701 5703 5704 5704 5704 5703 5702 5701 5699 5696 5692 5690 5687 5684 5681 5679 5676 5672 5667 5663 5658 5653 5648 5642 5637 5632 5626 5620
5479 5483 5491 5490 5495 5503 5522 5545 5566 5590 5603 5616 5627 5638 5648 5659 5667 5676 5683 5690 5695 5698 5701 5703 5703 5702 5701 5701 5699 5696 5693 5691 5689 5686 5682 5679 5676 5672 5668 5664 5659 5655 5650 5645 5639 5634 5628 5623 5617
5477 5481 5482 5484 5488 5497 5517 5536 5555 5580 5596 5610 5620 5630 5643 5652 5661 5669 5677 5683 5690 5696 5698 5699 5700 5701 5700 5698 5697 5695 5692 5690 5686 5682 5679 5676 5673 5669 5664 5660 5656 5651 5646 5641 5636 5631 5625 5619 5613
5467 5470 5474 5478 5486 5494 5509 5537 5567 5579 5594 5604 5615 5625 5635 5643 5652 5660 5669 5676 5683 5688 5692 5693 5694 5695 5694 5694 5693 5691 5688 5686 5682 5679 5676 5673 5669 5665 5661 5657 5652 5647 5642 5637 5632 5627 5621 5615 5609
5460 5461 5462 5464 5473 5485 5499 5532 5565 5571 5583 5593 5603 5614 5624 5634 5643 5651 5659 5666 5672 5678 5683 5686 5689 5690 5690 5690 5688 5687 5685 5681 5678 5676 5673 5669 5665 5662 5658 5653 5648 5644 5639 5634 5629 5623 5617 5611 5605